Location: Unspecified
(0.0000°N, 0.0000°E)
Time: 14:15:48
(UTC+00:00)

Vanguard 1 Rocket - Pass Details

Date: 12 December 2017
Orbit: 654 x 4223 km, 34.3° (Epoch: 21 April)

Event Time Altitude Azimuth Distance (km) Brightness Sun altitude
Rises 01:15:13 0° 307° (NW) 8,199 - -59.6°
Reaches altitude 10° 01:20:39 10° 307° (NW) 7,337 - -58.7°
Maximum altitude 01:47:25 88° 219° (SW) 3,744 - -54.0°
Exits shadow 01:49:10 81° 144° (SE) 3,681 10.1 -53.7°
Drops below altitude 10° 02:05:14 10° 129° (SE) 5,248 11.7 -50.6°
Sets 02:08:23 0° 128° (SE) 5,892 12.2 -49.9°
